Volver al catálogo

COSMOS 1651

GLONASS

ActivoNavegaciónMEO
NORAD 15698·PAYLOAD·🇷🇺 Russia

Lanzado May 17, 1985 desde Baikonur Cosmodrome

Loading…

Próximos Pases (próximas 24 horas)

TLE

ActualizadoSource: Space-Track

Época: Sep 8, 2026, 09:12 UTC

1 15698U 85037B   26251.38335932  .00000034  00000-0  00000-0 0  9991
2 15698  64.9325  69.9904 0015198  28.2156 345.1179  2.13123300321567

Sigue COSMOS 1651 en tiempo real con AllMySat

Download on the App Store